2017,11,30,00,00,00,320.7,,,,,,,,,,,,,,
2017,11,30,00,01,00,363.7,,,,,,,,,,,,,,
2017,11,30,00,02,00,387.5,,,,,,,,,,,,,,
2017,11,30,00,03,00,533.7,,,,,,,,,,,,,,
2017,11,30,00,04,00,370.4,,,,,,,,,,,,,,
2017,11,30,00,05,00,431.6,,,,,,,,,,,,,,
2017,11,30,00,06,00,485.3,,,,,,,,,,,,,,
2017,11,30,00,07,00,710.7,,,,,,,,,,,,,,
2017,11,30,00,08,00,570.3,,,,,,,,,,,,,,
2017,11,30,00,09,00,503.2,,,,,,,,,,,,,,
2017,11,30,00,10,00,333.0,,,,,,,,,,,,,,
2017,11,30,00,11,00,464.6,,,,,,,,,,,,,,
2017,11,30,00,12,00,441.5,,,,,,,,,,,,,,
2017,11,30,00,13,00,443.0,,,,,,,,,,,,,,
2017,11,30,00,14,00,706.6,,,,,,,,,,,,,,
2017,11,30,00,15,00,677.2,,,,,,,,,,,,,,
2017,11,30,00,16,00,576.6,,,,,,,,,,,,,,
2017,11,30,00,17,00,726.9,,,,,,,,,,,,,,
2017,11,30,00,18,00,609.2,,,,,,,,,,,,,,
2017,11,30,00,19,00,724.2,,,,,,,,,,,,,,
2017,11,30,00,20,00,467.4,,,,,,,,,,,,,,
2017,11,30,00,21,00,248.5,,,,,,,,,,,,,,
2017,11,30,00,22,00,490.7,,,,,,,,,,,,,,
2017,11,30,00,23,00,540.8,,,,,,,,,,,,,,
2017,11,30,00,24,00,363.5,,,,,,,,,,,,,,
2017,11,30,00,25,00,408.6,,,,,,,,,,,,,,
2017,11,30,00,26,00,669.0,,,,,,,,,,,,,,
2017,11,30,00,27,00,620.0,,,,,,,,,,,,,,
2017,11,30,00,28,00,603.1,,,,,,,,,,,,,,
2017,11,30,00,29,00,620.7,,,,,,,,,,,,,,
2017,11,30,00,30,00,598.0,,,,,,,,,,,,,,
2017,11,30,00,31,00,707.1,,,,,,,,,,,,,,
2017,11,30,00,32,00,546.5,,,,,,,,,,,,,,
2017,11,30,00,33,00,644.4,,,,,,,,,,,,,,
2017,11,30,00,34,00,664.9,,,,,,,,,,,,,,
2017,11,30,00,35,00,691.9,,,,,,,,,,,,,,
2017,11,30,00,36,00,802.2,,,,,,,,,,,,,,
2017,11,30,00,37,00,947.0,,,,,,,,,,,,,,
2017,11,30,00,38,00,907.0,,,,,,,,,,,,,,
2017,11,30,00,39,00,928.8,,,,,,,,,,,,,,
2017,11,30,00,40,00,979.7,,,,,,,,,,,,,,
2017,11,30,00,41,00,897.6,,,,,,,,,,,,,,
2017,11,30,00,42,00,961.6,,,,,,,,,,,,,,
2017,11,30,00,43,00,860.0,,,,,,,,,,,,,,
2017,11,30,00,44,00,924.2,,,,,,,,,,,,,,
2017,11,30,00,45,00,690.2,,,,,,,,,,,,,,
2017,11,30,00,46,00,937.8,,,,,,,,,,,,,,
2017,11,30,00,47,00,837.6,,,,,,,,,,,,,,
2017,11,30,00,48,00,819.1,,,,,,,,,,,,,,
2017,11,30,00,49,00,669.6,,,,,,,,,,,,,,
2017,11,30,00,50,00,669.5,,,,,,,,,,,,,,
2017,11,30,00,51,00,684.2,,,,,,,,,,,,,,
2017,11,30,00,52,00,772.8,,,,,,,,,,,,,,
2017,11,30,00,53,00,660.6,,,,,,,,,,,,,,
2017,11,30,00,54,00,715.2,,,,,,,,,,,,,,
2017,11,30,00,55,00,607.6,,,,,,,,,,,,,,
2017,11,30,00,56,00,546.1,,,,,,,,,,,,,,
2017,11,30,00,57,00,563.7,,,,,,,,,,,,,,
2017,11,30,00,58,00,721.9,,,,,,,,,,,,,,
2017,11,30,00,59,00,628.6,,,,,,,,,,,,,,
2017,11,30,01,00,00,722.4,,,,,,,,,,,,,,
2017,11,30,01,01,00,415.6,,,,,,,,,,,,,,
2017,11,30,01,02,00,799.3,,,,,,,,,,,,,,
2017,11,30,01,03,00,817.2,,,,,,,,,,,,,,
2017,11,30,01,04,00,613.1,,,,,,,,,,,,,,
2017,11,30,01,05,00,547.9,,,,,,,,,,,,,,
2017,11,30,01,06,00,1104.5,,,,,,,,,,,,,,
2017,11,30,01,07,00,1393.1,,,,,,,,,,,,,,
2017,11,30,01,08,00,998.8,,,,,,,,,,,,,,
2017,11,30,01,09,00,738.9,,,,,,,,,,,,,,
2017,11,30,01,10,00,608.1,,,,,,,,,,,,,,
2017,11,30,01,11,00,519.5,,,,,,,,,,,,,,
2017,11,30,01,12,00,624.0,,,,,,,,,,,,,,
2017,11,30,01,13,00,484.9,,,,,,,,,,,,,,
2017,11,30,01,14,00,541.1,,,,,,,,,,,,,,
2017,11,30,01,15,00,702.7,,,,,,,,,,,,,,
2017,11,30,01,16,00,747.8,,,,,,,,,,,,,,
2017,11,30,01,17,00,1252.8,,,,,,,,,,,,,,
2017,11,30,01,18,00,1232.3,,,,,,,,,,,,,,
2017,11,30,01,19,00,636.1,,,,,,,,,,,,,,
2017,11,30,01,20,00,571.4,,,,,,,,,,,,,,
2017,11,30,01,21,00,644.0,,,,,,,,,,,,,,
2017,11,30,01,22,00,384.8,,,,,,,,,,,,,,
2017,11,30,01,23,00,473.6,,,,,,,,,,,,,,
2017,11,30,01,24,00,105.9,,,,,,,,,,,,,,
2017,11,30,01,25,00,285.6,,,,,,,,,,,,,,
2017,11,30,01,26,00,551.4,,,,,,,,,,,,,,
2017,11,30,01,27,00,610.1,,,,,,,,,,,,,,
2017,11,30,01,28,00,729.1,,,,,,,,,,,,,,
2017,11,30,01,29,00,713.8,,,,,,,,,,,,,,
2017,11,30,01,30,00,474.8,,,,,,,,,,,,,,
2017,11,30,01,31,00,1262.3,,,,,,,,,,,,,,
2017,11,30,01,32,00,723.2,,,,,,,,,,,,,,
2017,11,30,01,33,00,508.1,,,,,,,,,,,,,,
2017,11,30,01,34,00,326.5,,,,,,,,,,,,,,
2017,11,30,01,35,00,367.4,,,,,,,,,,,,,,
2017,11,30,01,36,00,809.3,,,,,,,,,,,,,,
2017,11,30,01,37,00,724.9,,,,,,,,,,,,,,
2017,11,30,01,38,00,559.0,,,,,,,,,,,,,,
2017,11,30,01,39,00,523.2,,,,,,,,,,,,,,
2017,11,30,01,40,00,732.6,,,,,,,,,,,,,,
2017,11,30,01,41,00,962.0,,,,,,,,,,,,,,
2017,11,30,01,42,00,831.4,,,,,,,,,,,,,,
2017,11,30,01,43,00,478.4,,,,,,,,,,,,,,
2017,11,30,01,44,00,503.3,,,,,,,,,,,,,,
2017,11,30,01,45,00,430.5,,,,,,,,,,,,,,
2017,11,30,01,46,00,463.7,,,,,,,,,,,,,,
2017,11,30,01,47,00,414.4,,,,,,,,,,,,,,
2017,11,30,01,48,00,664.3,,,,,,,,,,,,,,
2017,11,30,01,49,00,730.6,,,,,,,,,,,,,,
2017,11,30,01,50,00,404.8,,,,,,,,,,,,,,
2017,11,30,01,51,00,263.3,,,,,,,,,,,,,,
2017,11,30,01,52,00,355.5,,,,,,,,,,,,,,
2017,11,30,01,53,00,715.1,,,,,,,,,,,,,,
2017,11,30,01,54,00,557.7,,,,,,,,,,,,,,
2017,11,30,01,55,00,702.8,,,,,,,,,,,,,,
2017,11,30,01,56,00,463.2,,,,,,,,,,,,,,
2017,11,30,01,57,00,529.8,,,,,,,,,,,,,,
2017,11,30,01,58,00,413.2,,,,,,,,,,,,,,
2017,11,30,01,59,00,372.6,,,,,,,,,,,,,,
2017,11,30,02,00,00,398.9,,,,,,,,,,,,,,
2017,11,30,02,01,00,251.6,,,,,,,,,,,,,,
2017,11,30,02,02,00,359.1,,,,,,,,,,,,,,
2017,11,30,02,03,00,391.8,,,,,,,,,,,,,,
2017,11,30,02,04,00,418.2,,,,,,,,,,,,,,
2017,11,30,02,05,00,583.7,,,,,,,,,,,,,,
2017,11,30,02,06,00,346.6,,,,,,,,,,,,,,
2017,11,30,02,07,00,531.8,,,,,,,,,,,,,,
2017,11,30,02,08,00,371.2,,,,,,,,,,,,,,
2017,11,30,02,09,00,251.2,,,,,,,,,,,,,,
2017,11,30,02,10,00,399.0,,,,,,,,,,,,,,
2017,11,30,02,11,00,579.1,,,,,,,,,,,,,,
2017,11,30,02,12,00,335.7,,,,,,,,,,,,,,
2017,11,30,02,13,00,299.8,,,,,,,,,,,,,,
2017,11,30,02,14,00,418.3,,,,,,,,,,,,,,
2017,11,30,02,15,00,187.7,,,,,,,,,,,,,,
2017,11,30,02,16,00,300.5,,,,,,,,,,,,,,
2017,11,30,02,17,00,283.8,,,,,,,,,,,,,,
2017,11,30,02,18,00,257.9,,,,,,,,,,,,,,
2017,11,30,02,19,00,243.5,,,,,,,,,,,,,,
2017,11,30,02,20,00,317.8,,,,,,,,,,,,,,
2017,11,30,02,21,00,396.8,,,,,,,,,,,,,,
2017,11,30,02,22,00,417.8,,,,,,,,,,,,,,
2017,11,30,02,23,00,521.2,,,,,,,,,,,,,,
2017,11,30,02,24,00,336.6,,,,,,,,,,,,,,
2017,11,30,02,25,00,147.3,,,,,,,,,,,,,,
2017,11,30,02,26,00,411.0,,,,,,,,,,,,,,
2017,11,30,02,27,00,470.1,,,,,,,,,,,,,,
2017,11,30,02,28,00,666.1,,,,,,,,,,,,,,
2017,11,30,02,29,00,704.6,,,,,,,,,,,,,,
2017,11,30,02,30,00,645.2,,,,,,,,,,,,,,
2017,11,30,02,31,00,385.9,,,,,,,,,,,,,,
2017,11,30,02,32,00,496.2,,,,,,,,,,,,,,
2017,11,30,02,33,00,280.5,,,,,,,,,,,,,,
2017,11,30,02,34,00,566.9,,,,,,,,,,,,,,
2017,11,30,02,35,00,571.1,,,,,,,,,,,,,,
2017,11,30,02,36,00,687.2,,,,,,,,,,,,,,
2017,11,30,02,37,00,318.0,,,,,,,,,,,,,,
2017,11,30,02,38,00,465.5,,,,,,,,,,,,,,
2017,11,30,02,39,00,1178.3,,,,,,,,,,,,,,
2017,11,30,02,40,00,1004.7,,,,,,,,,,,,,,
2017,11,30,02,41,00,542.6,,,,,,,,,,,,,,
2017,11,30,02,42,00,667.2,,,,,,,,,,,,,,
2017,11,30,02,43,00,1027.9,,,,,,,,,,,,,,
2017,11,30,02,44,00,611.7,,,,,,,,,,,,,,
2017,11,30,02,45,00,712.4,,,,,,,,,,,,,,
2017,11,30,02,46,00,643.8,,,,,,,,,,,,,,
2017,11,30,02,47,00,915.5,,,,,,,,,,,,,,
2017,11,30,02,48,00,749.5,,,,,,,,,,,,,,
2017,11,30,02,49,00,776.2,,,,,,,,,,,,,,
2017,11,30,02,50,00,630.3,,,,,,,,,,,,,,
2017,11,30,02,51,00,428.1,,,,,,,,,,,,,,
2017,11,30,02,52,00,475.5,,,,,,,,,,,,,,
2017,11,30,02,53,00,583.8,,,,,,,,,,,,,,
2017,11,30,02,54,00,623.0,,,,,,,,,,,,,,
2017,11,30,02,55,00,873.0,,,,,,,,,,,,,,
2017,11,30,02,56,00,264.4,,,,,,,,,,,,,,
2017,11,30,02,57,00,148.8,,,,,,,,,,,,,,
2017,11,30,02,58,00,274.6,,,,,,,,,,,,,,
2017,11,30,02,59,00,184.0,,,,,,,,,,,,,,
2017,11,30,03,00,00,327.4,,,,,,,,,,,,,,
2017,11,30,03,01,00,-82.3,,,,,,,,,,,,,,
2017,11,30,03,02,00,223.3,,,,,,,,,,,,,,
2017,11,30,03,03,00,73.8,,,,,,,,,,,,,,
2017,11,30,03,04,00,11.2,,,,,,,,,,,,,,
2017,11,30,03,05,00,42.3,,,,,,,,,,,,,,
2017,11,30,03,06,00,208.0,,,,,,,,,,,,,,
2017,11,30,03,07,00,90.7,,,,,,,,,,,,,,
2017,11,30,03,08,00,182.5,,,,,,,,,,,,,,
2017,11,30,03,09,00,196.7,,,,,,,,,,,,,,
2017,11,30,03,10,00,266.3,,,,,,,,,,,,,,
2017,11,30,03,11,00,617.7,,,,,,,,,,,,,,
2017,11,30,03,12,00,337.4,,,,,,,,,,,,,,
2017,11,30,03,13,00,238.3,,,,,,,,,,,,,,
2017,11,30,03,14,00,374.2,,,,,,,,,,,,,,
2017,11,30,03,15,00,538.3,,,,,,,,,,,,,,
2017,11,30,03,16,00,742.9,,,,,,,,,,,,,,
2017,11,30,03,17,00,362.1,,,,,,,,,,,,,,
2017,11,30,03,18,00,452.5,,,,,,,,,,,,,,
2017,11,30,03,19,00,503.4,,,,,,,,,,,,,,
2017,11,30,03,20,00,759.2,,,,,,,,,,,,,,
2017,11,30,03,21,00,697.1,,,,,,,,,,,,,,
2017,11,30,03,22,00,371.2,,,,,,,,,,,,,,
2017,11,30,03,23,00,251.6,,,,,,,,,,,,,,
2017,11,30,03,24,00,211.8,,,,,,,,,,,,,,
2017,11,30,03,25,00,285.9,,,,,,,,,,,,,,
2017,11,30,03,26,00,403.6,,,,,,,,,,,,,,
2017,11,30,03,27,00,254.0,,,,,,,,,,,,,,
2017,11,30,03,28,00,111.2,,,,,,,,,,,,,,
2017,11,30,03,29,00,205.2,,,,,,,,,,,,,,
2017,11,30,03,30,00,325.0,,,,,,,,,,,,,,
2017,11,30,03,31,00,195.7,,,,,,,,,,,,,,
2017,11,30,03,32,00,134.2,,,,,,,,,,,,,,
2017,11,30,03,33,00,167.7,,,,,,,,,,,,,,
2017,11,30,03,34,00,263.7,,,,,,,,,,,,,,
2017,11,30,03,35,00,110.3,,,,,,,,,,,,,,
2017,11,30,03,36,00,220.6,,,,,,,,,,,,,,
2017,11,30,03,37,00,318.5,,,,,,,,,,,,,,
2017,11,30,03,38,00,490.8,,,,,,,,,,,,,,
2017,11,30,03,39,00,397.3,,,,,,,,,,,,,,
2017,11,30,03,40,00,426.5,,,,,,,,,,,,,,
2017,11,30,03,41,00,534.9,,,,,,,,,,,,,,
2017,11,30,03,42,00,491.2,,,,,,,,,,,,,,
2017,11,30,03,43,00,757.8,,,,,,,,,,,,,,
2017,11,30,03,44,00,437.3,,,,,,,,,,,,,,
2017,11,30,03,45,00,1058.6,,,,,,,,,,,,,,
2017,11,30,03,46,00,1589.0,,,,,,,,,,,,,,
2017,11,30,03,47,00,1246.4,,,,,,,,,,,,,,
2017,11,30,03,48,00,2015.2,,,,,,,,,,,,,,
2017,11,30,03,49,00,1339.9,,,,,,,,,,,,,,
2017,11,30,03,50,00,2667.2,,,,,,,,,,,,,,
2017,11,30,03,51,00,2317.1,,,,,,,,,,,,,,
2017,11,30,03,52,00,939.3,,,,,,,,,,,,,,
2017,11,30,03,53,00,777.6,,,,,,,,,,,,,,
2017,11,30,03,54,00,1708.4,,,,,,,,,,,,,,
2017,11,30,03,55,00,1882.7,,,,,,,,,,,,,,
2017,11,30,03,56,00,2140.6,,,,,,,,,,,,,,
2017,11,30,03,57,00,2164.6,,,,,,,,,,,,,,
2017,11,30,03,58,00,3122.8,,,,,,,,,,,,,,
2017,11,30,03,59,00,2514.2,,,,,,,,,,,,,,
2017,11,30,04,00,00,1402.3,,,,,,,,,,,,,,
2017,11,30,04,01,00,1933.2,,,,,,,,,,,,,,
2017,11,30,04,02,00,2674.8,,,,,,,,,,,,,,
2017,11,30,04,03,00,1390.4,,,,,,,,,,,,,,
2017,11,30,04,04,00,1431.4,,,,,,,,,,,,,,
2017,11,30,04,05,00,1368.7,,,,,,,,,,,,,,
2017,11,30,04,06,00,1106.9,,,,,,,,,,,,,,
2017,11,30,04,07,00,1051.6,,,,,,,,,,,,,,
2017,11,30,04,08,00,1215.7,,,,,,,,,,,,,,
2017,11,30,04,09,00,1406.7,,,,,,,,,,,,,,
2017,11,30,04,10,00,1312.6,,,,,,,,,,,,,,
2017,11,30,04,11,00,913.2,,,,,,,,,,,,,,
2017,11,30,04,12,00,878.4,,,,,,,,,,,,,,
2017,11,30,04,13,00,809.4,,,,,,,,,,,,,,
2017,11,30,04,14,00,1037.8,,,,,,,,,,,,,,
2017,11,30,04,15,00,694.7,,,,,,,,,,,,,,
2017,11,30,04,16,00,687.2,,,,,,,,,,,,,,
2017,11,30,04,17,00,1049.1,,,,,,,,,,,,,,
2017,11,30,04,18,00,442.9,,,,,,,,,,,,,,
2017,11,30,04,19,00,603.7,,,,,,,,,,,,,,
2017,11,30,04,20,00,460.4,,,,,,,,,,,,,,
2017,11,30,04,21,00,743.9,,,,,,,,,,,,,,
2017,11,30,04,22,00,610.2,,,,,,,,,,,,,,
2017,11,30,04,23,00,380.9,,,,,,,,,,,,,,
2017,11,30,04,24,00,493.7,,,,,,,,,,,,,,
2017,11,30,04,25,00,621.8,,,,,,,,,,,,,,
2017,11,30,04,26,00,613.0,,,,,,,,,,,,,,
2017,11,30,04,27,00,276.2,,,,,,,,,,,,,,
2017,11,30,04,28,00,268.9,,,,,,,,,,,,,,
2017,11,30,04,29,00,511.7,,,,,,,,,,,,,,
2017,11,30,04,30,00,143.2,,,,,,,,,,,,,,
2017,11,30,04,31,00,436.6,,,,,,,,,,,,,,
2017,11,30,04,32,00,270.3,,,,,,,,,,,,,,
2017,11,30,04,33,00,290.9,,,,,,,,,,,,,,
2017,11,30,04,34,00,74.4,,,,,,,,,,,,,,
2017,11,30,04,35,00,235.0,,,,,,,,,,,,,,
2017,11,30,04,36,00,103.8,,,,,,,,,,,,,,
2017,11,30,04,37,00,177.0,,,,,,,,,,,,,,
2017,11,30,04,38,00,246.5,,,,,,,,,,,,,,
2017,11,30,04,39,00,198.3,,,,,,,,,,,,,,
2017,11,30,04,40,00,99.0,,,,,,,,,,,,,,
2017,11,30,04,41,00,-176.0,,,,,,,,,,,,,,
2017,11,30,04,42,00,121.3,,,,,,,,,,,,,,
2017,11,30,04,43,00,439.4,,,,,,,,,,,,,,
2017,11,30,04,44,00,265.0,,,,,,,,,,,,,,
2017,11,30,04,45,00,203.7,,,,,,,,,,,,,,
2017,11,30,04,46,00,318.8,,,,,,,,,,,,,,
2017,11,30,04,47,00,40.1,,,,,,,,,,,,,,
2017,11,30,04,48,00,62.7,,,,,,,,,,,,,,
2017,11,30,04,49,00,271.8,,,,,,,,,,,,,,
2017,11,30,04,50,00,36.6,,,,,,,,,,,,,,
2017,11,30,04,51,00,-6.3,,,,,,,,,,,,,,
2017,11,30,04,52,00,345.5,,,,,,,,,,,,,,
2017,11,30,04,53,00,339.3,,,,,,,,,,,,,,
2017,11,30,04,54,00,71.7,,,,,,,,,,,,,,
2017,11,30,04,55,00,-14.1,,,,,,,,,,,,,,
2017,11,30,04,56,00,264.9,,,,,,,,,,,,,,
2017,11,30,04,57,00,237.4,,,,,,,,,,,,,,
2017,11,30,04,58,00,74.1,,,,,,,,,,,,,,
2017,11,30,04,59,00,68.8,,,,,,,,,,,,,,
2017,11,30,05,00,00,-56.0,,,,,,,,,,,,,,
2017,11,30,05,01,00,119.7,,,,,,,,,,,,,,
2017,11,30,05,02,00,21.4,,,,,,,,,,,,,,
2017,11,30,05,03,00,111.0,,,,,,,,,,,,,,
2017,11,30,05,04,00,-50.8,,,,,,,,,,,,,,
2017,11,30,05,05,00,66.6,,,,,,,,,,,,,,
2017,11,30,05,06,00,-206.9,,,,,,,,,,,,,,
2017,11,30,05,07,00,115.5,,,,,,,,,,,,,,
2017,11,30,05,08,00,150.8,,,,,,,,,,,,,,
2017,11,30,05,09,00,507.9,,,,,,,,,,,,,,
2017,11,30,05,10,00,69.3,,,,,,,,,,,,,,
2017,11,30,05,11,00,-3.6,,,,,,,,,,,,,,
2017,11,30,05,12,00,-39.5,,,,,,,,,,,,,,
2017,11,30,05,13,00,-510.5,,,,,,,,,,,,,,
2017,11,30,05,14,00,-391.0,,,,,,,,,,,,,,
2017,11,30,05,15,00,-69.1,,,,,,,,,,,,,,
2017,11,30,05,16,00,-92.9,,,,,,,,,,,,,,
2017,11,30,05,17,00,-449.6,,,,,,,,,,,,,,
2017,11,30,05,18,00,-479.2,,,,,,,,,,,,,,
2017,11,30,05,19,00,-703.5,,,,,,,,,,,,,,
2017,11,30,05,20,00,-808.7,,,,,,,,,,,,,,
2017,11,30,05,21,00,-822.3,,,,,,,,,,,,,,
2017,11,30,05,22,00,-802.6,,,,,,,,,,,,,,
2017,11,30,05,23,00,-949.6,,,,,,,,,,,,,,
2017,11,30,05,24,00,-836.2,,,,,,,,,,,,,,
2017,11,30,05,25,00,-943.1,,,,,,,,,,,,,,
2017,11,30,05,26,00,-986.3,,,,,,,,,,,,,,
2017,11,30,05,27,00,-1034.7,,,,,,,,,,,,,,
2017,11,30,05,28,00,-1087.3,,,,,,,,,,,,,,
2017,11,30,05,29,00,-1115.2,,,,,,,,,,,,,,
2017,11,30,05,30,00,-1151.0,,,,,,,,,,,,,,
2017,11,30,05,31,00,-976.0,,,,,,,,,,,,,,
2017,11,30,05,32,00,-814.5,,,,,,,,,,,,,,
2017,11,30,05,33,00,-910.9,,,,,,,,,,,,,,
2017,11,30,05,34,00,-779.4,,,,,,,,,,,,,,
2017,11,30,05,35,00,-819.8,,,,,,,,,,,,,,
2017,11,30,05,36,00,-857.8,,,,,,,,,,,,,,
2017,11,30,05,37,00,-892.6,,,,,,,,,,,,,,
2017,11,30,05,38,00,-958.0,,,,,,,,,,,,,,
2017,11,30,05,39,00,-1031.0,,,,,,,,,,,,,,
2017,11,30,05,40,00,-787.1,,,,,,,,,,,,,,
2017,11,30,05,41,00,-866.3,,,,,,,,,,,,,,
2017,11,30,05,42,00,-1010.8,,,,,,,,,,,,,,
2017,11,30,05,43,00,-691.4,,,,,,,,,,,,,,
2017,11,30,05,44,00,-873.2,,,,,,,,,,,,,,
2017,11,30,05,45,00,-751.3,,,,,,,,,,,,,,
2017,11,30,05,46,00,-1262.5,,,,,,,,,,,,,,
2017,11,30,05,47,00,-572.0,,,,,,,,,,,,,,
2017,11,30,05,48,00,-740.5,,,,,,,,,,,,,,
2017,11,30,05,49,00,-647.0,,,,,,,,,,,,,,
2017,11,30,05,50,00,-648.8,,,,,,,,,,,,,,
2017,11,30,05,51,00,-781.7,,,,,,,,,,,,,,
2017,11,30,05,52,00,-903.3,,,,,,,,,,,,,,
2017,11,30,05,53,00,-800.2,,,,,,,,,,,,,,
2017,11,30,05,54,00,-876.1,,,,,,,,,,,,,,
2017,11,30,05,55,00,-753.6,,,,,,,,,,,,,,
2017,11,30,05,56,00,-651.4,,,,,,,,,,,,,,
2017,11,30,05,57,00,-475.1,,,,,,,,,,,,,,
2017,11,30,05,58,00,-233.8,,,,,,,,,,,,,,
2017,11,30,05,59,00,43.4,,,,,,,,,,,,,,
2017,11,30,06,00,00,160.4,,,,,,,,,,,,,,
2017,11,30,06,01,00,96.7,,,,,,,,,,,,,,
2017,11,30,06,02,00,588.2,,,,,,,,,,,,,,
2017,11,30,06,03,00,495.4,,,,,,,,,,,,,,
2017,11,30,06,04,00,308.8,,,,,,,,,,,,,,
2017,11,30,06,05,00,-176.2,,,,,,,,,,,,,,
2017,11,30,06,06,00,-78.9,,,,,,,,,,,,,,
2017,11,30,06,07,00,311.8,,,,,,,,,,,,,,
2017,11,30,06,08,00,305.1,,,,,,,,,,,,,,
2017,11,30,06,09,00,213.2,,,,,,,,,,,,,,
2017,11,30,06,10,00,-24.4,,,,,,,,,,,,,,
2017,11,30,06,11,00,301.8,,,,,,,,,,,,,,
2017,11,30,06,12,00,382.2,,,,,,,,,,,,,,
2017,11,30,06,13,00,325.3,,,,,,,,,,,,,,
2017,11,30,06,14,00,283.6,,,,,,,,,,,,,,
2017,11,30,06,15,00,239.8,,,,,,,,,,,,,,
2017,11,30,06,16,00,381.7,,,,,,,,,,,,,,
2017,11,30,06,17,00,196.1,,,,,,,,,,,,,,
2017,11,30,06,18,00,450.2,,,,,,,,,,,,,,
2017,11,30,06,19,00,277.0,,,,,,,,,,,,,,
2017,11,30,06,20,00,203.5,,,,,,,,,,,,,,
2017,11,30,06,21,00,45.1,,,,,,,,,,,,,,
2017,11,30,06,22,00,141.2,,,,,,,,,,,,,,
2017,11,30,06,23,00,87.6,,,,,,,,,,,,,,
2017,11,30,06,24,00,-103.1,,,,,,,,,,,,,,
2017,11,30,06,25,00,-0.8,,,,,,,,,,,,,,
2017,11,30,06,26,00,194.8,,,,,,,,,,,,,,
2017,11,30,06,27,00,-3.6,,,,,,,,,,,,,,
2017,11,30,06,28,00,142.4,,,,,,,,,,,,,,
2017,11,30,06,29,00,223.7,,,,,,,,,,,,,,
2017,11,30,06,30,00,300.4,,,,,,,,,,,,,,
2017,11,30,06,31,00,281.4,,,,,,,,,,,,,,
2017,11,30,06,32,00,349.5,,,,,,,,,,,,,,
2017,11,30,06,33,00,351.4,,,,,,,,,,,,,,
2017,11,30,06,34,00,332.3,,,,,,,,,,,,,,
2017,11,30,06,35,00,222.2,,,,,,,,,,,,,,
2017,11,30,06,36,00,84.0,,,,,,,,,,,,,,
2017,11,30,06,37,00,245.5,,,,,,,,,,,,,,
2017,11,30,06,38,00,368.0,,,,,,,,,,,,,,
2017,11,30,06,39,00,31.7,,,,,,,,,,,,,,
2017,11,30,06,40,00,69.7,,,,,,,,,,,,,,
2017,11,30,06,41,00,-136.7,,,,,,,,,,,,,,
2017,11,30,06,42,00,166.9,,,,,,,,,,,,,,
2017,11,30,06,43,00,57.5,,,,,,,,,,,,,,
2017,11,30,06,44,00,151.5,,,,,,,,,,,,,,
2017,11,30,06,45,00,136.3,,,,,,,,,,,,,,
2017,11,30,06,46,00,445.2,,,,,,,,,,,,,,
2017,11,30,06,47,00,576.6,,,,,,,,,,,,,,
2017,11,30,06,48,00,315.2,,,,,,,,,,,,,,
2017,11,30,06,49,00,454.0,,,,,,,,,,,,,,
2017,11,30,06,50,00,449.2,,,,,,,,,,,,,,
2017,11,30,06,51,00,397.8,,,,,,,,,,,,,,
2017,11,30,06,52,00,51.1,,,,,,,,,,,,,,
2017,11,30,06,53,00,511.9,,,,,,,,,,,,,,
2017,11,30,06,54,00,284.6,,,,,,,,,,,,,,
2017,11,30,06,55,00,454.1,,,,,,,,,,,,,,
2017,11,30,06,56,00,,,,,,,,,,,,,,,
2017,11,30,06,57,00,,,,,,,,,,,,,,,
2017,11,30,06,58,00,,,,,,,,,,,,,,,
2017,11,30,06,59,00,,,,,,,,,,,,,,,
2017,11,30,07,00,00,,,,,,,,,,,,,,,
2017,11,30,07,01,00,,,,,,,,,,,,,,,
2017,11,30,07,02,00,,,,,,,,,,,,,,,
2017,11,30,07,03,00,,,,,,,,,,,,,,,
2017,11,30,07,04,00,,,,,,,,,,,,,,,
2017,11,30,07,05,00,,,,,,,,,,,,,,,
2017,11,30,07,06,00,,,,,,,,,,,,,,,
2017,11,30,07,07,00,,,,,,,,,,,,,,,
2017,11,30,07,08,00,,,,,,,,,,,,,,,
2017,11,30,07,09,00,,,,,,,,,,,,,,,
2017,11,30,07,10,00,,,,,,,,,,,,,,,
2017,11,30,07,11,00,,,,,,,,,,,,,,,
2017,11,30,07,12,00,,,,,,,,,,,,,,,
2017,11,30,07,13,00,,,,,,,,,,,,,,,
2017,11,30,07,14,00,,,,,,,,,,,,,,,
2017,11,30,07,15,00,,,,,,,,,,,,,,,
2017,11,30,07,16,00,,,,,,,,,,,,,,,
2017,11,30,07,17,00,,,,,,,,,,,,,,,
2017,11,30,07,18,00,,,,,,,,,,,,,,,
2017,11,30,07,19,00,,,,,,,,,,,,,,,
2017,11,30,07,20,00,,,,,,,,,,,,,,,
2017,11,30,07,21,00,,,,,,,,,,,,,,,
2017,11,30,07,22,00,,,,,,,,,,,,,,,
2017,11,30,07,23,00,,,,,,,,,,,,,,,
2017,11,30,07,24,00,,,,,,,,,,,,,,,
2017,11,30,07,25,00,,,,,,,,,,,,,,,
2017,11,30,07,26,00,,,,,,,,,,,,,,,
2017,11,30,07,27,00,,,,,,,,,,,,,,,
2017,11,30,07,28,00,,,,,,,,,,,,,,,
2017,11,30,07,29,00,,,,,,,,,,,,,,,
2017,11,30,07,30,00,,,,,,,,,,,,,,,
2017,11,30,07,31,00,,,,,,,,,,,,,,,
2017,11,30,07,32,00,,,,,,,,,,,,,,,
2017,11,30,07,33,00,,,,,,,,,,,,,,,
2017,11,30,07,34,00,,,,,,,,,,,,,,,
2017,11,30,07,35,00,,,,,,,,,,,,,,,
2017,11,30,07,36,00,,,,,,,,,,,,,,,
2017,11,30,07,37,00,,,,,,,,,,,,,,,
2017,11,30,07,38,00,,,,,,,,,,,,,,,
2017,11,30,07,39,00,,,,,,,,,,,,,,,
2017,11,30,07,40,00,,,,,,,,,,,,,,,
2017,11,30,07,41,00,,,,,,,,,,,,,,,
2017,11,30,07,42,00,,,,,,,,,,,,,,,
2017,11,30,07,43,00,,,,,,,,,,,,,,,
2017,11,30,07,44,00,,,,,,,,,,,,,,,
2017,11,30,07,45,00,,,,,,,,,,,,,,,
2017,11,30,07,46,00,,,,,,,,,,,,,,,
2017,11,30,07,47,00,,,,,,,,,,,,,,,
2017,11,30,07,48,00,,,,,,,,,,,,,,,
2017,11,30,07,49,00,,,,,,,,,,,,,,,
2017,11,30,07,50,00,,,,,,,,,,,,,,,
2017,11,30,07,51,00,,,,,,,,,,,,,,,
2017,11,30,07,52,00,,,,,,,,,,,,,,,
2017,11,30,07,53,00,,,,,,,,,,,,,,,
2017,11,30,07,54,00,,,,,,,,,,,,,,,
2017,11,30,07,55,00,,,,,,,,,,,,,,,
2017,11,30,07,56,00,,,,,,,,,,,,,,,
2017,11,30,07,57,00,,,,,,,,,,,,,,,
2017,11,30,07,58,00,,,,,,,,,,,,,,,
2017,11,30,07,59,00,,,,,,,,,,,,,,,
2017,11,30,08,00,00,,,,,,,,,,,,,,,
2017,11,30,08,01,00,,,,,,,,,,,,,,,
2017,11,30,08,02,00,,,,,,,,,,,,,,,
2017,11,30,08,03,00,,,,,,,,,,,,,,,
2017,11,30,08,04,00,,,,,,,,,,,,,,,
2017,11,30,08,05,00,,,,,,,,,,,,,,,
2017,11,30,08,06,00,,,,,,,,,,,,,,,
2017,11,30,08,07,00,,,,,,,,,,,,,,,
2017,11,30,08,08,00,,,,,,,,,,,,,,,
2017,11,30,08,09,00,,,,,,,,,,,,,,,
2017,11,30,08,10,00,,,,,,,,,,,,,,,
2017,11,30,08,11,00,,,,,,,,,,,,,,,
2017,11,30,08,12,00,,,,,,,,,,,,,,,
2017,11,30,08,13,00,,,,,,,,,,,,,,,
2017,11,30,08,14,00,,,,,,,,,,,,,,,
2017,11,30,08,15,00,,,,,,,,,,,,,,,
2017,11,30,08,16,00,,,,,,,,,,,,,,,
2017,11,30,08,17,00,,,,,,,,,,,,,,,
2017,11,30,08,18,00,,,,,,,,,,,,,,,
2017,11,30,08,19,00,,,,,,,,,,,,,,,
2017,11,30,08,20,00,,,,,,,,,,,,,,,
2017,11,30,08,21,00,,,,,,,,,,,,,,,
2017,11,30,08,22,00,,,,,,,,,,,,,,,
2017,11,30,08,23,00,,,,,,,,,,,,,,,
2017,11,30,08,24,00,,,,,,,,,,,,,,,
2017,11,30,08,25,00,,,,,,,,,,,,,,,
2017,11,30,08,26,00,,,,,,,,,,,,,,,
2017,11,30,08,27,00,,,,,,,,,,,,,,,
2017,11,30,08,28,00,,,,,,,,,,,,,,,
2017,11,30,08,29,00,,,,,,,,,,,,,,,
2017,11,30,08,30,00,,,,,,,,,,,,,,,
2017,11,30,08,31,00,,,,,,,,,,,,,,,
2017,11,30,08,32,00,,,,,,,,,,,,,,,
2017,11,30,08,33,00,,,,,,,,,,,,,,,
2017,11,30,08,34,00,,,,,,,,,,,,,,,
2017,11,30,08,35,00,,,,,,,,,,,,,,,
2017,11,30,08,36,00,,,,,,,,,,,,,,,
2017,11,30,08,37,00,,,,,,,,,,,,,,,
2017,11,30,08,38,00,,,,,,,,,,,,,,,
2017,11,30,08,39,00,,,,,,,,,,,,,,,
2017,11,30,08,40,00,,,,,,,,,,,,,,,
2017,11,30,08,41,00,,,,,,,,,,,,,,,
2017,11,30,08,42,00,,,,,,,,,,,,,,,
2017,11,30,08,43,00,,,,,,,,,,,,,,,
2017,11,30,08,44,00,,,,,,,,,,,,,,,
2017,11,30,08,45,00,,,,,,,,,,,,,,,
2017,11,30,08,46,00,,,,,,,,,,,,,,,
2017,11,30,08,47,00,,,,,,,,,,,,,,,
2017,11,30,08,48,00,,,,,,,,,,,,,,,
2017,11,30,08,49,00,,,,,,,,,,,,,,,
2017,11,30,08,50,00,,,,,,,,,,,,,,,
2017,11,30,08,51,00,,,,,,,,,,,,,,,
2017,11,30,08,52,00,,,,,,,,,,,,,,,
2017,11,30,08,53,00,,,,,,,,,,,,,,,
2017,11,30,08,54,00,,,,,,,,,,,,,,,
2017,11,30,08,55,00,,,,,,,,,,,,,,,
2017,11,30,08,56,00,,,,,,,,,,,,,,,
2017,11,30,08,57,00,,,,,,,,,,,,,,,
2017,11,30,08,58,00,,,,,,,,,,,,,,,
2017,11,30,08,59,00,,,,,,,,,,,,,,,
2017,11,30,09,00,00,,,,,,,,,,,,,,,
2017,11,30,09,01,00,,,,,,,,,,,,,,,
2017,11,30,09,02,00,,,,,,,,,,,,,,,
2017,11,30,09,03,00,,,,,,,,,,,,,,,
2017,11,30,09,04,00,,,,,,,,,,,,,,,
2017,11,30,09,05,00,,,,,,,,,,,,,,,
2017,11,30,09,06,00,,,,,,,,,,,,,,,
2017,11,30,09,07,00,,,,,,,,,,,,,,,
2017,11,30,09,08,00,,,,,,,,,,,,,,,
2017,11,30,09,09,00,,,,,,,,,,,,,,,
2017,11,30,09,10,00,,,,,,,,,,,,,,,
2017,11,30,09,11,00,,,,,,,,,,,,,,,
2017,11,30,09,12,00,,,,,,,,,,,,,,,
2017,11,30,09,13,00,,,,,,,,,,,,,,,
2017,11,30,09,14,00,,,,,,,,,,,,,,,
2017,11,30,09,15,00,,,,,,,,,,,,,,,
2017,11,30,09,16,00,,,,,,,,,,,,,,,
2017,11,30,09,17,00,,,,,,,,,,,,,,,
2017,11,30,09,18,00,,,,,,,,,,,,,,,
2017,11,30,09,19,00,,,,,,,,,,,,,,,
2017,11,30,09,20,00,,,,,,,,,,,,,,,
2017,11,30,09,21,00,,,,,,,,,,,,,,,
2017,11,30,09,22,00,,,,,,,,,,,,,,,
2017,11,30,09,23,00,,,,,,,,,,,,,,,
2017,11,30,09,24,00,,,,,,,,,,,,,,,
2017,11,30,09,25,00,,,,,,,,,,,,,,,
2017,11,30,09,26,00,,,,,,,,,,,,,,,
2017,11,30,09,27,00,,,,,,,,,,,,,,,
2017,11,30,09,28,00,,,,,,,,,,,,,,,
2017,11,30,09,29,00,,,,,,,,,,,,,,,
2017,11,30,09,30,00,,,,,,,,,,,,,,,
2017,11,30,09,31,00,,,,,,,,,,,,,,,
2017,11,30,09,32,00,,,,,,,,,,,,,,,
2017,11,30,09,33,00,,,,,,,,,,,,,,,
2017,11,30,09,34,00,,,,,,,,,,,,,,,
2017,11,30,09,35,00,,,,,,,,,,,,,,,
2017,11,30,09,36,00,,,,,,,,,,,,,,,
2017,11,30,09,37,00,,,,,,,,,,,,,,,
2017,11,30,09,38,00,,,,,,,,,,,,,,,
2017,11,30,09,39,00,,,,,,,,,,,,,,,
2017,11,30,09,40,00,,,,,,,,,,,,,,,
2017,11,30,09,41,00,,,,,,,,,,,,,,,
2017,11,30,09,42,00,,,,,,,,,,,,,,,
2017,11,30,09,43,00,,,,,,,,,,,,,,,
2017,11,30,09,44,00,,,,,,,,,,,,,,,
2017,11,30,09,45,00,,,,,,,,,,,,,,,
2017,11,30,09,46,00,,,,,,,,,,,,,,,
2017,11,30,09,47,00,,,,,,,,,,,,,,,
2017,11,30,09,48,00,,,,,,,,,,,,,,,
2017,11,30,09,49,00,,,,,,,,,,,,,,,
2017,11,30,09,50,00,,,,,,,,,,,,,,,
2017,11,30,09,51,00,,,,,,,,,,,,,,,
2017,11,30,09,52,00,,,,,,,,,,,,,,,
2017,11,30,09,53,00,,,,,,,,,,,,,,,
2017,11,30,09,54,00,,,,,,,,,,,,,,,
2017,11,30,09,55,00,,,,,,,,,,,,,,,
2017,11,30,09,56,00,,,,,,,,,,,,,,,
2017,11,30,09,57,00,,,,,,,,,,,,,,,
2017,11,30,09,58,00,,,,,,,,,,,,,,,
2017,11,30,09,59,00,,,,,,,,,,,,,,,
2017,11,30,10,00,00,,,,,,,,,,,,,,,
2017,11,30,10,01,00,,,,,,,,,,,,,,,
2017,11,30,10,02,00,,,,,,,,,,,,,,,
2017,11,30,10,03,00,,,,,,,,,,,,,,,
2017,11,30,10,04,00,,,,,,,,,,,,,,,
2017,11,30,10,05,00,,,,,,,,,,,,,,,
2017,11,30,10,06,00,,,,,,,,,,,,,,,